Flag for Romania Weather past 2 weeks in Iasi, Romania

Now
68 °F

Clear.


Feels Like: 68 °F
Forecast: 57 / 83 °F
Wind: No wind

Location: Iasi Airport

Current Time: Aug 1, 2015 at 11:55:23 PM

Latest Report: Aug 1, 2015 at 11:00 PM


Visibility: 10 mi

Pressure: 30.15 "Hg

Humidity: 53%

Dew point: 50 °F

Location of IasiLocation

Historic Weather in Iasi — Graph

°F

Iasi temperature yesterday

Maximum temperature yesterday: 70 °F (at 11:00 AM)
Minimum temperature yesterday: 63 °F (at 10:00 PM)
Average temperature yesterday: 67 °F

Past Weeks' High & Low Weather Summary

 TemperatureHumidityPressure
High95 °F (Jul 23, 3:30 PM)100% (Jul 30, 8:30 PM)30.15 "Hg (Jul 30, 8:30 PM)
Low59 °F (Aug 1, 5:30 AM)28% (Jul 24, 3:30 PM)29.65 "Hg (Jul 26, 4:00 PM)
Average79 °F56%29.90 "Hg
* Reported Jul 17 10:00 PM — Aug 1 10:00 PM, Iasi, Weather by CustomWeather, © 2015

Note: Actual official high and low records may vary slightly from our data, if they occured in-between our weather recording intervals... More about our weather records

Advertising

Iasi weather history for previous 24 hours

 ConditionsComfort  
Time TempWeatherWind HumidityBarometerVisibility
10:00 PM
Sat, Aug 1
66 °FClear.1 mph56%30.15 "Hg10 mi
9:00 PM72 °FSunny.2 mph47%30.12 "Hg10 mi
8:30 PM75 °FSunny.2 mph44%30.12 "Hg10 mi
8:00 PM77 °FSunny.2 mph34%30.12 "Hg10 mi
7:30 PM77 °FSunny.5 mph36%30.12 "Hg10 mi
7:00 PM79 °FPassing clouds.5 mph34%30.12 "HgN/A
6:30 PM79 °FPassing clouds.8 mph32%30.12 "HgN/A
6:00 PM79 °FPassing clouds.6 mph34%30.12 "HgN/A
5:30 PM79 °FSunny.9 mph34%30.12 "Hg10 mi
5:00 PM77 °FPassing clouds.7 mph36%30.12 "HgN/A
4:30 PM79 °FPassing clouds.7 mph34%30.12 "HgN/A
4:00 PM77 °FPassing clouds.7 mph39%30.12 "HgN/A
3:30 PM77 °FPassing clouds.7 mph36%30.12 "HgN/A
3:00 PM77 °FSunny.9 mph39%30.12 "Hg10 mi
2:30 PM77 °FPassing clouds.7 mph39%30.12 "HgN/A
2:00 PM75 °FPassing clouds.9 mph41%30.12 "HgN/A
1:30 PM75 °FSunny.13 mph44%30.12 "Hg10 mi
1:00 PM73 °FPassing clouds.7 mph50%30.12 "HgN/A
12:30 PM73 °FSunny.7 mph50%30.12 "Hg10 mi
12:00 PM72 °FSunny.9 mph57%30.15 "Hg10 mi
11:30 AM70 °FPassing clouds.8 mph64%30.15 "HgN/A
11:00 AM70 °FSunny.12 mph60%30.15 "Hg10 mi
10:30 AM68 °FPassing clouds.8 mph69%30.15 "HgN/A
9:30 AM66 °FPassing clouds.7 mph73%30.15 "HgN/A
9:00 AM64 °FPassing clouds.7 mph83%30.15 "HgN/A
8:30 AM63 °FSunny.9 mph83%30.12 "Hg10 mi
7:30 AM59 °FSunny.10 mph100%30.12 "Hg10 mi
7:00 AM59 °FSunny.9 mph94%30.09 "Hg10 mi
6:30 AM59 °FClear.8 mph94%30.09 "Hg10 mi
6:00 AM59 °FClear.8 mph94%30.09 "Hg10 mi
5:30 AM59 °FClear.9 mph100%30.07 "Hg10 mi
5:00 AM61 °FClear.9 mph94%30.07 "Hg10 mi
4:00 AM61 °FOvercast.9 mph94%30.07 "HgN/A
3:00 AM61 °FOvercast.10 mph94%30.07 "HgN/A
2:00 AM61 °FPassing clouds.10 mph94%30.04 "HgN/A
1:00 AM63 °FOvercast.9 mph88%30.04 "HgN/A
12:00 AM63 °FPartly cloudy.8 mph88%30.04 "HgN/A
11:00 PM
Fri, Jul 31
63 °FOvercast.10 mph94%30.01 "HgN/A
Weather by CustomWeather, © 2015

See weather overviewHow to use our weather pages